North Bend, OR

5:21 PM PST on December 03, 2016 (GMT -0800)
North Bend Municipal

Weather History for KOTH - January, 2012

Change the Weather History Date:

Friday, January 27, 2012

  Actual Average Record
Temperature  
Mean Temperature 45 °F 46 °F  
Max Temperature 55 °F 52 °F 70 °F (1931)
Min Temperature 34 °F 40 °F 19 °F (1957)
Degree Days  
Heating Degree Days 20 19  
Month to date heating degree days 500 515  
Since 1 July heating degree days 2531 2576  
Cooling Degree Days 0 0  
Month to date cooling degree days 0 0  
Year to date cooling degree days 0 0  
Moisture  
Dew Point 29 °F    
Average Humidity 61    
Maximum Humidity 76    
Minimum Humidity 38    
Precipitation  
Precipitation 0.00 in 0.29 in 2.20 in (1950)
Month to date precipitation 4.04 9.04  
Year to date precipitation 4.04 9.04  
Sea Level Pressure  
Sea Level Pressure 30.52 in    
Wind  
Wind Speed 7 mph (NE)    
Max Wind Speed 20 mph    
Max Gust Speed 23 mph    
Visibility 10 miles    
Events      
T = Trace of Precipitation, MM = Missing Value Source: NWS Daily Summary

Daily Weather History Graph

Daily Weather History Graph

Search for Another Location

Airport or City:

Trip Planner

Search our weather history database for the weather conditions in past years. The results will help you decide how hot, cold, wet, or windy it might be!

Date:

Astronomy

Jan. 27, 2012 Rise Set
Actual Time 7:38 AM PST 5:21 PM PST
Civil Twilight 7:07 AM PST 5:52 PM PST
Nautical Twilight 6:33 AM PST 6:26 PM PST
Astronomical Twilight 5:59 AM PST 7:00 PM PST
Moon 9:25 AM PST (1/27) 10:29 PM PST (1/27)
Length of Visible Light 10h 44m
Length of Day
9h 43m
Waxing Crescent, 20% of the Moon is Illuminated
Jan 27
Waxing Crescent
Jan 30
First Quarter
Feb 7
Full
Feb 14
Last Quarter
Feb 21
New

Hourly Weather History & Observations

Time (PST) Temp. Windchill Dew Point Humidity Pressure Visibility Wind Dir Wind Speed Gust Speed Precip Events Conditions
12:15 AM 35.6 °F 29.9 °F 26.6 °F 70% 30.59 in 10.0 mi NE 6.9 mph - N/A   Clear
12:35 AM 37.4 °F 31.4 °F 30.2 °F 75% 30.57 in 10.0 mi NNE 8.1 mph - N/A   Clear
12:55 AM 39.2 °F 33.0 °F 28.4 °F 65% 30.58 in 10.0 mi NNE 9.2 mph - N/A   Clear
1:15 AM 37.4 °F 30.3 °F 28.4 °F 70% 30.57 in 10.0 mi NE 10.4 mph - N/A   Clear
1:35 AM 39.2 °F 34.2 °F 28.4 °F 65% 30.55 in 10.0 mi NE 6.9 mph - N/A   Clear
1:55 AM 37.4 °F 34.9 °F 28.4 °F 70% 30.55 in 10.0 mi ENE 3.5 mph - N/A   Clear
2:15 AM 37.4 °F - 28.4 °F 70% 30.55 in 10.0 mi Calm Calm - N/A   Clear
2:35 AM 37.4 °F - 26.6 °F 65% 30.55 in 10.0 mi Calm Calm - N/A   Clear
2:55 AM 37.4 °F - 26.6 °F 65% 30.55 in 10.0 mi Calm Calm - N/A   Clear
3:15 AM 37.4 °F 34.9 °F 26.6 °F 65% 30.55 in 10.0 mi East 3.5 mph - N/A   Clear
3:35 AM 37.4 °F 32.1 °F 26.6 °F 65% 30.54 in 10.0 mi East 6.9 mph - N/A   Clear
3:55 AM 37.4 °F 32.1 °F 26.6 °F 65% 30.54 in 10.0 mi East 6.9 mph - N/A   Clear
4:15 AM 37.4 °F 30.3 °F 26.6 °F 65% 30.54 in 10.0 mi ENE 10.4 mph - N/A   Clear
4:35 AM 37.4 °F 34.9 °F 26.6 °F 65% 30.56 in 10.0 mi NNE 3.5 mph - N/A   Clear
4:55 AM 35.6 °F 28.0 °F 26.6 °F 70% 30.56 in 10.0 mi NNE 10.4 mph - N/A   Clear
5:15 AM 37.4 °F 33.8 °F 26.6 °F 65% 30.54 in 10.0 mi NE 4.6 mph - N/A   Clear
5:35 AM 35.6 °F 32.8 °F 26.6 °F 70% 30.53 in 10.0 mi NNE 3.5 mph - N/A   Clear
5:55 AM 35.6 °F 32.8 °F 26.6 °F 70% 30.52 in 10.0 mi NNE 3.5 mph - N/A   Clear
6:15 AM 35.6 °F 29.9 °F 26.6 °F 70% 30.52 in 10.0 mi NE 6.9 mph - N/A   Clear
6:35 AM 35.6 °F 29.2 °F 26.6 °F 70% 30.53 in 10.0 mi NNE 8.1 mph - N/A   Clear
6:55 AM 33.8 °F 27.7 °F 26.6 °F 75% 30.53 in 10.0 mi North 6.9 mph - N/A   Clear
7:15 AM 33.8 °F 27.7 °F 26.6 °F 75% 30.54 in 10.0 mi NE 6.9 mph - N/A   Clear
7:35 AM 35.6 °F 27.5 °F 26.6 °F 70% 30.54 in 10.0 mi NNE 11.5 mph - N/A   Clear
7:55 AM 35.6 °F 28.0 °F 26.6 °F 70% 30.55 in 10.0 mi NNE 10.4 mph - N/A   Clear
8:15 AM 35.6 °F 30.7 °F 26.6 °F 70% 30.55 in 10.0 mi East 5.8 mph - N/A   Clear
8:35 AM 37.4 °F 30.3 °F 26.6 °F 65% 30.55 in 10.0 mi ENE 10.4 mph - N/A   Clear
8:55 AM 39.2 °F 31.2 °F 26.6 °F 61% 30.54 in 10.0 mi East 13.8 mph 20.7 mph N/A   Clear
9:15 AM 39.2 °F 30.5 °F 26.6 °F 61% 30.54 in 10.0 mi East 16.1 mph - N/A   Clear
9:35 AM 41.0 °F 32.2 °F 26.6 °F 57% 30.54 in 10.0 mi East 18.4 mph 21.9 mph N/A   Clear
9:55 AM 42.8 °F 34.3 °F 26.6 °F 53% 30.54 in 10.0 mi East 19.6 mph 23.0 mph N/A   Clear
10:15 AM 42.8 °F 35.8 °F 28.4 °F 57% 30.53 in 10.0 mi East 13.8 mph - N/A   Clear
10:35 AM 42.8 °F 35.1 °F 28.4 °F 57% 30.53 in 10.0 mi East 16.1 mph - N/A   Clear
10:55 AM 44.6 °F 37.4 °F 28.4 °F 53% 30.53 in 10.0 mi East 16.1 mph 20.7 mph N/A   Clear
11:15 AM 46.4 °F 40.1 °F 28.4 °F 50% 30.53 in 10.0 mi East 15.0 mph - N/A   Clear
11:35 AM 46.4 °F 41.1 °F 30.2 °F 53% 30.52 in 10.0 mi East 11.5 mph - N/A   Clear
11:55 AM 48.2 °F - 30.2 °F 50% 30.50 in 10.0 mi East 9.2 mph - N/A   Clear
12:15 PM 50.0 °F - 30.2 °F 47% 30.50 in 10.0 mi ENE 6.9 mph - N/A   Clear
12:35 PM 51.8 °F - 30.2 °F 44% 30.50 in 10.0 mi East 6.9 mph - N/A   Clear
12:55 PM 51.8 °F - 30.2 °F 44% 30.49 in 10.0 mi North 4.6 mph - N/A   Clear
1:15 PM 51.8 °F - 28.4 °F 41% 30.49 in 10.0 mi North 5.8 mph - N/A   Clear
1:35 PM 53.6 °F - 30.2 °F 41% 30.49 in 10.0 mi NNE 3.5 mph - N/A   Clear
1:55 PM 55.4 °F - 30.2 °F 38% 30.48 in 10.0 mi NNE 3.5 mph - N/A   Clear
2:15 PM 55.4 °F - 30.2 °F 38% 30.48 in 10.0 mi NE 4.6 mph - N/A   Clear
2:35 PM 55.4 °F - 30.2 °F 38% 30.48 in 10.0 mi NNE 4.6 mph - N/A   Clear
2:55 PM 53.6 °F - 33.8 °F 47% 30.48 in 10.0 mi NW 5.8 mph - N/A   Clear
3:15 PM 51.8 °F - 35.6 °F 54% 30.48 in 10.0 mi NNW 9.2 mph - N/A   Clear
3:35 PM 51.8 °F - 35.6 °F 54% 30.49 in 10.0 mi NNW 11.5 mph - N/A   Clear
3:55 PM 50.0 °F - 33.8 °F 54% 30.48 in 10.0 mi North 15.0 mph - N/A   Clear
4:15 PM 48.2 °F - 32.0 °F 54% 30.49 in 10.0 mi NNW 15.0 mph - N/A   Clear
4:35 PM 48.2 °F - 33.8 °F 58% 30.49 in 10.0 mi North 12.7 mph - N/A   Clear
4:55 PM 46.4 °F 42.4 °F 33.8 °F 62% 30.49 in 10.0 mi North 8.1 mph - N/A   Clear
5:15 PM 44.6 °F 41.4 °F 33.8 °F 66% 30.48 in 8.0 mi North 5.8 mph - N/A   Clear
5:35 PM 44.6 °F - 33.8 °F 66% 30.48 in 8.0 mi Calm Calm - N/A   Clear
5:55 PM 42.8 °F 39.3 °F 33.8 °F 70% 30.47 in 10.0 mi ESE 5.8 mph - N/A   Clear
6:15 PM 41.0 °F 39.0 °F 32.0 °F 70% 30.48 in 10.0 mi SSE 3.5 mph - N/A   Clear
6:35 PM 42.8 °F 41.1 °F 33.8 °F 70% 30.48 in 10.0 mi South 3.5 mph - N/A   Clear
6:55 PM 41.0 °F 38.0 °F 30.2 °F 65% 30.49 in 10.0 mi NE 4.6 mph - N/A   Clear
7:15 PM 37.4 °F - 30.2 °F 75% 30.50 in 10.0 mi Calm Calm - N/A   Clear
7:35 PM 39.2 °F - 32.0 °F 75% 30.50 in 10.0 mi Calm Calm - N/A   Clear
7:55 PM 37.4 °F - 30.2 °F 75% 30.50 in 9.0 mi Calm Calm - N/A   Clear
8:15 PM 35.6 °F 30.7 °F 28.4 °F 75% 30.50 in 9.0 mi SSE 5.8 mph - N/A   Clear
8:35 PM 35.6 °F 29.9 °F 28.4 °F 75% 30.49 in 10.0 mi SE 6.9 mph - N/A   Clear
8:55 PM 35.6 °F 29.9 °F 28.4 °F 75% 30.48 in 10.0 mi SE 6.9 mph - N/A   Clear
9:15 PM 35.6 °F 29.2 °F 26.6 °F 70% 30.47 in 10.0 mi SE 8.1 mph - N/A   Clear
9:35 PM 35.6 °F 28.6 °F 26.6 °F 70% 30.47 in 10.0 mi SSE 9.2 mph - N/A   Clear
9:55 PM 35.6 °F 29.9 °F 26.6 °F 70% 30.48 in 10.0 mi SE 6.9 mph - N/A   Clear
10:15 PM 33.8 °F 28.6 °F 26.6 °F 75% 30.49 in 10.0 mi SE 5.8 mph - N/A   Clear
10:35 PM 33.8 °F 28.6 °F 26.6 °F 75% 30.50 in 10.0 mi SE 5.8 mph - N/A   Clear
10:55 PM 35.6 °F 29.2 °F 26.6 °F 70% 30.49 in 10.0 mi SE 8.1 mph - N/A   Clear
11:15 PM 35.6 °F 28.0 °F 26.6 °F 70% 30.48 in 10.0 mi SE 10.4 mph - N/A   Clear
11:35 PM 35.6 °F 29.2 °F 26.6 °F 70% 30.48 in 10.0 mi SSE 8.1 mph - N/A   Clear
11:55 PM 35.6 °F 29.2 °F 26.6 °F 70% 30.48 in 10.0 mi SSE 8.1 mph - N/A   Clear